Home   Weather   Racine   Past weeks

Flag for USA Past Weather in Racine, Wisconsin, USA — Yesterday and Last 2 Weeks

Now
38 °F

Passing clouds.


Feels Like: 33 °F
Forecast: 25 / 38 °F
Wind: 6 mph from Southeast

Location: Batten International Airport

Current Time: Dec 6, 2016 at 6:15:44 am

Latest Report: Dec 6, 2016 at 4:53 am


Visibility: 9 mi

Pressure: 29.86 "Hg

Humidity: 83%

Dew Point: 33 °F

Location of RacineLocation

Past Weather in Racine — Graph

°F

Racine Temperature Yesterday

Maximum temperature yesterday: 37 °F (at 9:53 pm)
Minimum temperature yesterday: 33 °F (at 1:01 am)
Average temperature yesterday: 34 °F

High & Low Weather Summary for the Past Weeks

 TemperatureHumidityPressure
High55 °F (Nov 29, 1:53 pm)97% (Nov 27, 7:53 am)30.38 "Hg (Nov 27, 7:53 am)
Low23 °F (Nov 21, 4:53 am)51% (Nov 29, 1:53 pm)29.15 "Hg (Nov 28, 9:53 pm)
Average38 °F79%30.01 "Hg
* Reported Nov 21 4:53 am — Dec 6 4:53 am, Racine, Weather by CustomWeather, © 2016

Note: Actual official high and low records may vary slightly from our data, if they occured in-between our weather recording intervals... More about our weather records

Advertising

Racine Weather History for the Previous 24 Hours

Scroll right to see more
 ConditionsComfort  
Time TempWeatherWind HumidityBarometerVisibility
4:53 am
Tue, Dec 6
38 °FPassing clouds.6 mph83%29.86 "Hg9 mi
3:53 am39 °FOvercast.8 mph82%29.88 "Hg8 mi
2:53 am38 °FOvercast.10 mph86%29.90 "Hg8 mi
1:53 am38 °FOvercast.8 mph83%29.93 "Hg9 mi
12:53 am37 °FOvercast.10 mph86%29.93 "Hg10 mi
11:53 pm
Mon, Dec 5
37 °FLow clouds.14 mph86%29.93 "Hg10 mi
10:53 pm37 °FOvercast.12 mph82%29.96 "Hg10 mi
9:53 pm37 °FLow clouds.12 mph86%29.97 "Hg10 mi
8:53 pm35 °FFog.8 mph88%29.99 "Hg5 mi
7:53 pm34 °FFog.3 mph88%29.99 "Hg4 mi
6:53 pm33 °FFog.5 mph92%30.02 "Hg4 mi
5:53 pm33 °FFog.5 mph92%30.02 "Hg5 mi
4:53 pm33 °FFog.5 mph92%30.03 "Hg4 mi
3:53 pm33 °FFog.7 mph88%30.02 "Hg3 mi
2:53 pm33 °FFog.9 mph88%30.03 "Hg4 mi
1:53 pm33 °FFog.8 mph92%30.01 "Hg3 mi
12:53 pm33 °FFog.7 mph92%30.02 "Hg2 mi
11:53 am33 °FFog.8 mph92%30.02 "Hg2 mi
10:53 am33 °FFog.7 mph88%30.02 "Hg4 mi
9:53 am33 °FFog.10 mph88%30.04 "Hg5 mi
8:53 am33 °FFog.6 mph88%30.03 "Hg6 mi
7:53 am33 °FLow clouds.5 mph88%30.01 "Hg8 mi
6:53 am33 °FLow clouds.5 mph88%30.01 "Hg9 mi
Weather by CustomWeather, © 2016

See weather overviewHow to use our weather pages